Theta_e
350 349 349 348 349 349 349 348 347 347 347 344 343 342 339 339 334 332 331 333 334 340 344 344 354 354 355 355 359 363 364 362 364 363 364 365 368 360 356 356 357 359 363 367 369 371 373 373 373 373 372 371 371 371 370 370 369 369 369 368 367 367 368 367 364 360 358 358 359 360 361 361 361 361
348 348 348 348 347 349 348 348 348 347 347 344 342 341 341 342 337 335 332 332 338 338 345 347 348 354 353 351 353 359 363 362 363 363 361 361 361 355 354 355 355 354 355 357 361 364 366 369 370 371 371 371 370 370 370 370 370 370 369 369 369 368 368 365 361 359 357 357 358 358 359 360 360 359
346 347 346 348 348 348 348 348 347 346 345 344 343 343 343 342 340 338 337 332 338 343 340 344 348 350 351 349 352 354 360 362 361 362 364 363 360 357 360 357 355 353 352 351 355 361 366 368 370 371 371 370 370 369 369 369 369 369 369 369 369 369 368 362 359 357 357 356 357 357 358 359 359 358
342 344 343 345 345 346 345 344 343 343 343 343 343 344 345 344 344 343 340 336 334 343 343 343 348 349 350 352 352 354 356 357 358 363 366 364 359 364 365 357 354 353 351 349 349 352 358 365 369 370 371 370 370 370 369 368 368 369 369 369 368 367 363 360 357 356 356 356 357 357 358 358 357 356
340 342 341 342 342 343 342 342 342 342 342 343 344 346 345 343 344 343 341 337 336 341 345 345 346 348 350 348 352 351 356 358 361 359 364 365 363 362 362 363 353 351 350 348 347 346 348 353 360 366 369 369 370 370 369 368 367 367 367 366 365 362 358 357 357 356 356 356 356 357 357 357 356 355
340 341 341 341 341 343 342 341 341 340 341 341 341 342 342 341 342 344 341 339 337 336 344 344 349 348 351 348 352 352 352 355 361 361 362 363 362 361 363 363 362 351 349 347 346 345 344 345 349 354 359 363 366 368 369 367 366 364 362 359 357 355 353 354 355 355 355 355 355 355 355 355 355 354
341 340 342 341 342 341 340 340 341 341 341 340 340 340 342 341 342 344 344 341 338 337 339 344 343 346 349 350 350 353 355 358 359 358 359 359 360 360 362 361 360 351 348 347 345 344 343 343 344 346 348 351 355 357 358 359 357 355 352 350 349 348 349 350 350 352 354 354 354 353 353 353 353 352
339 339 339 340 340 341 340 340 340 341 341 341 342 340 342 342 342 343 343 343 340 339 336 341 342 346 347 349 351 354 356 356 356 356 357 357 357 359 359 360 360 355 349 348 347 346 344 342 341 341 341 343 346 347 344 343 343 343 343 344 345 345 346 346 345 346 349 351 352 352 351 351 351 350
341 338 337 337 337 339 338 339 339 340 340 340 341 341 342 342 342 343 343 343 343 340 338 340 344 347 348 350 351 353 351 353 355 354 354 356 357 358 357 357 358 352 350 349 347 346 345 344 343 341 339 339 339 338 338 338 338 338 339 339 340 341 341 341 341 342 343 344 345 346 346 346 346 346
340 337 336 335 337 337 338 338 340 341 341 341 341 341 342 342 343 343 343 344 343 343 340 341 341 345 345 346 348 352 353 351 351 353 354 353 353 353 352 354 355 356 356 356 357 350 349 345 342 341 341 339 338 337 337 337 336 336 335 335 336 337 338 338 337 337 338 339 340 341 342 342 343 344
340 340 339 340 340 340 340 340 341 342 342 343 342 343 342 343 343 342 342 343 342 341 340 340 341 341 344 345 342 349 352 352 350 347 348 348 352 352 352 351 352 353 353 352 350 352 353 352 353 346 340 337 337 337 337 337 337 338 336 333 332 334 335 335 335 335 335 335 336 336 337 339 341 342
343 342 342 342 342 342 342 341 343 343 342 344 343 344 344 344 343 342 342 342 341 340 340 339 339 341 342 344 346 348 346 345 346 347 346 343 347 348 351 350 350 354 354 354 354 351 351 352 352 346 344 343 342 341 339 338 340 342 340 335 332 333 333 334 334 334 334 333 333 332 332 332 335 339
344 344 344 344 344 345 347 346 347 346 345 343 342 344 345 344 343 343 342 341 338 338 339 338 340 339 339 340 341 341 341 341 341 345 347 345 347 348 348 350 352 351 351 352 353 351 352 352 354 356 357 358 352 352 345 347 345 344 342 338 335 333 333 333 333 333 333 333 332 332 331 330 330 332
344 344 344 345 347 347 347 348 348 347 346 345 346 345 345 345 343 341 335 333 336 334 334 336 337 337 336 337 339 339 341 343 346 345 345 342 345 347 345 347 349 351 352 350 349 351 352 351 353 354 353 355 357 357 358 356 351 344 338 336 334 333 333 333 332 332 332 331 331 331 331 330 329 329
343 344 344 345 346 347 349 346 348 346 346 346 345 345 345 346 345 341 337 335 336 336 335 338 338 336 336 337 340 341 343 345 345 344 345 344 343 340 338 337 345 351 352 349 345 348 351 352 350 352 353 354 355 355 356 345 341 338 336 335 334 333 333 332 332 331 331 330 330 330 330 329 329 328
340 341 342 344 345 345 346 346 347 347 346 344 343 343 343 343 343 343 341 338 337 337 335 335 337 337 337 338 340 340 342 343 345 345 345 343 341 340 338 339 338 346 349 347 345 345 351 352 349 349 350 352 354 354 347 339 337 337 336 335 334 333 332 332 331 331 331 331 330 330 329 329 329 329
338 339 340 340 342 343 344 345 345 346 346 346 344 343 343 342 342 338 338 338 339 339 337 334 334 336 338 338 339 341 343 346 343 344 341 340 341 341 339 340 342 346 350 346 342 340 346 349 347 346 349 351 353 353 343 338 337 336 335 334 333 332 332 331 331 331 330 330 329 329 328 328 328 328
337 338 338 338 338 341 342 343 344 344 344 344 344 345 345 346 346 343 339 337 337 339 339 337 335 338 341 336 341 345 346 342 338 336 339 342 341 340 340 344 345 348 350 344 343 340 343 346 345 344 348 350 351 352 343 335 334 334 334 333 332 331 331 331 330 330 330 329 328 327 326 326 326 326
336 337 337 337 337 338 339 340 341 341 341 341 341 342 342 343 344 345 345 346 347 342 340 339 339 338 341 342 343 345 345 344 344 342 341 343 343 343 345 344 346 346 350 348 344 336 342 348 346 344 347 348 349 351 339 332 332 333 333 332 332 331 330 330 329 329 329 329 328 327 326 325 324 324
335 336 336 336 336 337 338 339 339 340 340 340 338 338 337 339 341 341 343 337 339 341 342 343 341 340 341 340 345 346 346 346 347 347 348 347 343 339 337 336 340 340 348 348 344 339 340 347 342 342 347 348 346 348 349 338 333 331 331 331 330 330 329 328 328 328 328 328 327 327 325 324 323 322
334 335 336 336 336 336 337 337 330 332 339 336 337 337 336 337 338 338 340 335 331 331 330 330 332 333 333 332 330 329 332 340 343 344 340 338 339 334 332 333 336 337 343 346 346 340 338 343 343 341 344 347 346 347 347 349 336 331 330 329 328 328 327 327 326 326 327 327 326 326 325 323 322 322
333 334 335 336 335 335 336 333 329 329 337 335 336 335 334 334 333 334 337 338 339 333 329 328 328 329 329 330 330 330 329 328 334 340 335 338 339 333 333 332 334 338 342 344 348 339 338 343 345 341 344 346 348 348 348 349 346 335 330 328 327 327 326 326 325 325 325 325 325 325 324 323 323 329
330 332 334 334 335 334 334 326 325 326 333 334 333 334 333 332 332 334 337 337 337 339 339 340 340 339 336 337 338 339 334 333 337 340 340 341 337 333 334 333 334 333 336 342 348 337 339 340 343 342 338 336 344 349 349 348 350 351 351 351 350 331 327 327 325 323 322 323 323 323 323 322 321 332
324 325 328 332 332 326 323 320 319 320 321 329 333 334 331 330 332 336 337 338 338 337 337 337 339 339 341 341 342 343 342 342 341 341 341 340 338 334 333 333 333 331 334 344 347 340 341 343 341 345 342 335 333 344 347 348 350 351 351 351 349 341 334 330 326 322 321 321 320 320 320 320 320 332
318 320 323 326 329 324 321 319 316 314 315 319 326 330 331 332 334 334 333 334 336 335 336 336 337 337 338 339 339 340 340 340 341 341 340 340 339 337 335 333 333 333 337 343 340 342 338 341 341 343 341 340 339 338 343 345 348 347 348 349 349 351 351 347 340 343 324 319 318 317 317 318 318 324
317 318 320 322 325 322 321 319 315 313 314 316 322 326 320 318 320 328 332 333 334 334 334 333 333 334 334 335 336 336 337 337 339 340 341 341 341 340 340 336 335 333 335 344 332 341 336 338 338 339 338 337 336 339 337 340 345 348 349 349 349 350 350 347 346 344 344 343 339 325 325 318 318 318
316 317 319 320 321 318 314 312 312 312 313 318 322 316 314 316 319 325 328 329 330 330 330 330 330 331 332 333 333 334 334 336 338 339 340 340 342 342 342 343 343 340 341 346 343 343 342 340 342 337 335 338 334 336 336 335 339 343 341 343 343 344 345 345 344 344 345 344 343 328 321 320 319 319
315 316 317 318 315 311 307 306 309 311 315 317 311 310 312 315 320 324 325 325 325 326 325 325 325 326 328 328 329 331 332 335 337 337 339 340 341 342 342 343 341 342 342 342 342 341 340 338 338 339 339 336 333 331 331 338 341 342 341 346 341 342 341 340 341 341 342 343 341 341 337 334 331 327
318 316 313 311 310 310 309 309 310 313 315 313 312 312 314 319 321 322 322 322 322 321 321 322 323 324 325 326 328 330 332 333 335 335 337 339 339 341 341 341 342 341 341 340 339 339 338 338 336 338 337 338 334 334 334 333 336 338 337 334 335 334 331 333 335 336 335 334 333 333 331 331 332 330
315 312 311 311 311 312 313 317 318 319 319 318 318 318 319 322 321 321 320 320 320 319 319 320 320 321 324 325 327 329 330 329 329 330 330 331 332 334 334 335 335 330 327 327 328 327 327 328 330 330 331 334 335 334 335 332 332 330 325 326 325 327 322 322 323 322 324 323 321 321 321 323 326 327
314 314 315 316 316 316 318 319 319 319 320 320 320 321 321 321 321 321 321 320 320 320 320 321 322 323 325 327 327 326 326 325 327 329 328 328 329 331 332 330 330 324 320 321 323 324 324 325 326 326 325 328 330 330 327 327 327 322 320 319 322 327 321 319 319 320 320 320 319 319 319 320 322 324
314 314 315 316 318 319 319 319 319 319 320 321 321 322 323 323 324 324 324 324 324 323 323 323 323 324 324 323 324 326 325 325 325 327 327 327 327 329 329 327 327 321 317 318 318 320 321 320 319 320 320 320 323 321 317 317 315 315 316 317 317 316 316 316 316 317 318 319 317 315 315 316 317 318
314 313 313 314 315 315 316 317 317 318 320 321 321 321 322 323 323 323 322 321 322 323 323 322 321 321 321 322 323 323 323 324 322 323 325 327 327 327 325 323 319 317 315 314 315 316 317 317 319 318 317 316 316 317 316 312 313 314 314 314 315 314 314 316 316 316 318 317 314 314 313 314 314 315
316 316 316 316 317 317 317 317 318 317 318 317 317 318 320 320 320 320 319 319 320 321 321 321 321 321 321 319 319 319 318 318 318 319 319 318 320 317 316 314 314 315 315 314 314 314 315 316 317 316 316 315 315 315 315 313 311 313 314 314 314 313 314 316 317 317 317 317 315 312 312 312 313 315
315 314 314 314 315 316 316 315 315 316 315 316 316 315 316 317 318 318 317 317 318 319 318 319 319 319 319 318 318 317 317 317 317 318 318 318 317 315 315 313 313 314 313 314 314 317 318 316 317 316 316 316 314 314 314 315 314 313 314 313 314 314 314 316 317 317 317 316 316 312 310 311 311 314
314 314 314 313 314 314 314 315 316 315 314 314 315 315 315 315 316 316 315 316 318 317 317 317 318 317 317 317 317 317 317 317 316 316 315 315 315 314 314 313 313 313 313 313 314 316 316 315 315 314 311 310 309 308 310 314 313 315 314 312 314 314 314 315 316 316 316 315 315 314 310 309 310 313
312 313 314 313 314 314 314 314 314 315 315 315 315 316 315 314 314 315 316 316 317 317 316 317 316 316 316 316 316 316 317 316 314 315 315 315 315 314 312 312 312 313 312 313 314 314 314 313 313 312 311 309 307 305 306 313 313 314 316 314 313 314 314 315 314 313 315 315 314 314 313 311 310 312
309 311 311 312 313 314 315 315 315 315 315 316 316 315 315 315 315 315 316 315 315 316 316 316 316 317 316 316 316 316 316 316 316 314 314 315 314 313 313 311 311 311 311 312 313 312 313 312 311 311 311 308 306 306 306 311 312 313 312 315 313 313 316 314 312 311 311 314 313 314 315 312 311 313
308 308 309 309 310 312 312 314 315 314 315 316 316 316 315 315 315 316 315 315 315 314 314 315 315 315 314 314 315 315 314 314 313 314 314 315 315 314 314 313 312 313 312 311 311 312 312 311 311 310 310 308 307 307 308 308 308 312 313 311 315 315 314 313 311 312 311 311 311 313 313 314 315 314
308 308 308 308 308 309 310 312 313 314 315 315 316 316 316 315 315 315 315 315 315 314 314 313 314 313 314 314 313 313 313 313 313 313 313 313 313 314 314 314 313 313 312 310 310 311 311 311 312 312 312 312 312 314 313 313 313 315 315 314 311 314 315 315 313 312 311 313 314 312 310 312 310 313
307 305 305 307 306 307 308 309 311 313 313 314 315 316 315 316 315 315 315 315 314 313 313 312 313 312 311 312 313 313 312 313 313 314 314 314 314 313 313 313 313 313 311 310 311 311 311 314 317 317 317 316 316 316 315 310 307 309 311 313 312 312 313 314 315 313 311 312 312 310 309 309 309 310
306 305 306 307 306 306 307 307 308 310 311 312 313 314 314 315 315 316 315 316 316 315 315 314 315 314 314 314 314 314 313 314 315 315 315 315 314 315 314 314 313 314 312 310 311 312 315 317 317 318 317 316 313 309 306 307 307 309 311 313 314 312 311 311 312 312 315 314 312 309 309 310 311 309
305 304 304 305 305 305 305 306 306 307 309 310 311 313 313 313 313 313 314 315 315 315 315 315 316 316 317 317 317 316 315 315 315 316 316 316 316 315 315 315 314 313 312 312 314 315 316 317 317 316 315 314 312 312 308 308 309 309 310 311 312 314 315 311 310 310 309 309 311 313 314 312 309 306
304 303 303 303 303 303 304 304 305 305 307 309 311 312 313 313 311 312 312 313 314 314 315 316 316 317 317 317 318 318 317 316 316 315 315 315 316 315 314 315 315 315 315 314 314 313 314 314 315 316 314 313 314 312 310 310 309 310 311 311 313 314 313 315 316 313 312 310 309 311 312 313 313 313
304 303 303 303 303 303 303 304 304 304 305 306 308 310 310 310 311 311 312 312 313 313 314 315 315 316 317 317 317 315 315 315 315 314 314 314 314 315 315 315 314 314 314 315 315 313 314 313 314 315 315 315 316 315 314 313 311 311 311 312 311 312 313 314 313 313 314 314 310 309 311 312 313 313
Wind_Speed
7 6 8 7 6 6 5 5 6 6 5 5 5 5 6 5 7 7 7 8 7 5 4 5 3 4 5 6 4 4 4 4 4 3 3 3 4 6 8 8 9 10 12 13 15 16 17 18 19 19 20 21 20 20 21 21 21 21 21 20 20 20 21 22 19 18 19 19 19 19 19 19 18 18
6 6 6 6 7 6 6 6 6 5 6 6 5 6 5 5 6 6 8 9 5 7 3 3 4 4 6 5 5 4 4 6 7 4 3 3 4 6 7 7 8 9 10 12 13 14 15 16 18 18 19 19 20 20 20 20 21 21 21 21 20 20 21 20 19 19 19 19 19 20 20 19 19 19
6 7 7 6 7 7 7 7 6 6 5 6 5 5 5 5 7 8 6 9 4 5 8 5 5 6 6 6 5 5 4 5 7 5 5 4 5 7 6 7 7 8 9 10 11 12 14 15 16 17 18 18 18 19 19 20 20 21 21 21 21 20 20 20 19 19 19 19 19 19 19 20 19 19
6 7 8 7 7 7 6 6 6 6 6 6 5 5 6 6 6 5 6 8 10 4 7 7 6 7 7 7 6 6 6 6 8 5 4 5 6 4 4 7 6 5 7 9 9 10 11 13 14 15 16 16 17 17 18 18 19 19 20 20 20 20 19 19 19 19 19 19 19 19 19 19 19 19
6 7 8 8 8 7 7 7 6 5 6 5 5 5 5 6 5 5 6 8 9 6 5 7 6 7 6 7 6 8 6 6 5 4 4 4 4 4 4 4 7 7 4 6 8 9 10 11 12 13 14 14 15 16 17 18 18 19 19 19 19 19 19 19 19 19 19 20 20 20 19 19 19 19
6 7 8 8 8 8 9 7 7 6 6 6 6 6 6 6 6 6 6 6 7 9 3 6 5 6 6 7 7 8 8 8 6 5 4 3 3 4 3 4 5 6 7 5 5 7 8 9 10 12 12 13 13 14 15 17 17 18 18 18 18 18 18 18 19 19 19 20 20 20 20 19 19 19
7 6 7 8 8 5 7 7 7 6 6 6 6 7 6 6 7 6 7 6 7 8 6 5 7 6 5 6 7 7 6 6 5 5 5 4 3 3 4 4 4 5 6 7 6 6 7 8 9 10 11 12 12 13 13 13 14 15 16 16 16 17 18 18 18 19 19 19 19 19 19 19 18 18
7 7 6 8 9 8 8 8 7 6 6 6 6 7 6 6 7 6 6 7 7 6 10 5 7 6 6 6 6 5 5 6 5 5 4 3 4 4 4 4 4 5 7 8 9 9 9 9 9 10 10 11 12 12 13 13 13 13 14 15 15 16 16 17 18 18 18 18 19 19 19 19 18 18
6 5 8 10 12 9 8 7 7 6 8 7 6 6 6 6 6 5 6 7 6 8 10 7 6 6 5 5 6 4 5 5 5 4 5 4 4 4 4 4 4 7 9 9 10 10 10 10 10 10 11 11 11 11 12 12 13 13 14 14 15 15 16 16 17 17 18 18 18 19 19 19 19 19
7 8 11 12 11 10 8 7 7 6 8 7 6 7 6 6 6 6 7 6 7 8 9 8 7 6 7 6 6 5 4 5 5 5 4 4 4 4 5 4 3 3 4 4 4 6 7 8 10 11 11 11 12 12 12 12 12 13 14 14 14 14 15 15 16 17 17 18 18 19 19 18 19 19
7 8 8 10 9 9 8 9 8 8 8 6 7 7 7 7 7 7 6 7 8 8 9 8 8 7 7 8 8 5 2 4 5 7 6 6 3 3 4 5 4 3 4 6 8 8 8 9 8 8 10 11 12 12 12 12 13 13 14 14 14 14 15 16 16 17 17 18 18 18 18 18 19 19
7 8 8 8 9 9 9 9 9 9 8 6 7 7 7 7 7 7 6 7 8 9 9 10 9 6 7 6 6 6 4 5 6 6 7 9 6 5 3 5 5 2 3 5 4 5 7 8 9 11 12 12 13 12 11 13 13 14 14 13 14 14 15 16 16 16 17 18 18 18 18 18 18 19
8 8 8 8 8 9 13 13 11 10 9 7 7 7 7 8 8 8 6 6 7 9 9 9 7 7 7 8 8 8 8 9 8 4 5 7 6 5 5 4 5 5 5 4 5 6 5 6 5 5 5 6 8 9 12 10 12 14 13 14 14 15 16 16 16 17 17 17 18 18 19 19 19 19
7 8 7 8 14 15 16 16 16 17 16 16 12 9 7 9 9 8 7 7 8 10 10 9 9 8 8 9 9 9 8 7 6 4 4 8 5 4 6 6 5 4 5 5 5 6 4 4 6 5 6 6 5 6 5 6 8 9 13 14 14 15 15 16 16 17 17 17 18 18 19 19 19 19
7 7 7 7 10 13 14 15 16 16 16 16 17 17 16 13 10 10 8 7 9 10 11 10 8 7 9 10 7 7 7 6 7 7 5 4 5 7 8 9 5 2 5 4 5 5 3 4 5 5 6 6 6 6 7 9 11 12 12 12 13 14 15 15 16 16 16 17 17 18 18 18 19 19
7 7 7 7 6 7 9 9 9 12 14 16 16 16 16 16 17 15 12 9 8 9 11 10 9 9 9 7 6 6 6 7 6 6 5 6 8 8 8 8 9 1 3 3 4 7 4 4 6 7 6 6 6 7 8 10 12 12 13 13 14 14 14 15 15 16 16 17 17 17 18 18 19 20
7 7 7 8 7 6 12 12 10 9 9 12 16 16 16 16 16 16 17 15 14 11 9 9 10 9 7 8 8 8 8 6 8 6 7 7 8 9 10 10 8 6 4 4 8 10 6 3 6 7 7 7 6 7 9 12 13 13 14 14 14 14 15 15 16 16 17 17 17 17 18 18 19 20
7 7 7 7 8 7 8 8 8 8 8 8 8 8 8 8 10 13 15 17 19 16 10 9 11 9 7 10 9 8 8 9 8 9 9 7 9 10 11 9 8 5 2 6 7 11 8 6 7 9 7 6 6 7 10 11 12 14 14 15 14 15 15 16 16 16 16 17 17 17 17 18 19 19
8 8 7 8 9 8 8 7 9 8 8 8 7 8 8 8 7 7 8 8 7 7 10 11 10 10 10 10 10 7 8 9 8 10 10 10 9 8 7 6 6 7 6 7 6 9 7 4 7 10 8 6 7 7 8 12 13 14 15 15 15 15 15 16 16 16 16 16 17 17 17 18 18 19
7 8 8 8 8 9 9 10 14 13 10 9 10 9 9 9 7 7 6 8 8 9 10 9 10 10 11 11 10 8 7 6 6 6 7 6 6 8 10 11 6 9 5 8 8 9 10 5 10 10 7 5 7 7 7 9 13 14 14 15 16 16 16 16 15 16 16 16 16 17 17 17 18 19
8 8 8 9 8 8 9 10 12 12 11 11 10 8 9 8 7 9 8 11 14 14 14 12 12 10 11 11 13 13 14 11 8 6 7 8 9 11 10 10 9 10 6 5 8 8 10 7 8 11 9 6 6 8 9 8 10 13 14 15 16 16 16 16 15 15 16 16 16 16 17 17 17 19
8 9 13 14 10 10 10 10 11 11 11 9 8 9 9 11 11 10 8 6 6 9 11 13 14 14 13 13 14 13 12 13 8 8 11 9 7 11 10 10 10 9 7 6 6 7 9 5 5 8 8 8 6 7 8 8 8 9 10 14 15 15 15 15 15 14 14 15 15 15 16 16 16 13
6 7 8 12 12 11 10 11 10 10 11 10 11 10 10 10 11 10 6 6 7 6 6 6 6 6 8 8 7 8 14 14 11 10 11 9 12 11 10 10 8 9 8 7 9 9 7 7 7 7 6 6 6 7 8 8 6 6 6 6 7 12 13 13 12 13 13 14 14 15 16 16 15 8
7 6 7 8 9 9 8 8 9 9 8 7 6 7 8 9 10 8 8 8 8 9 8 8 8 9 8 8 6 6 6 7 10 11 11 12 11 10 10 10 9 9 6 2 8 9 4 4 5 5 6 7 6 0 1 3 4 5 4 5 7 6 7 8 9 13 14 14 14 14 15 15 14 8
10 8 7 7 8 9 8 6 5 4 5 4 4 5 6 8 8 8 6 7 11 8 8 8 8 8 7 7 7 7 7 9 9 9 10 10 9 8 8 8 8 10 9 7 8 8 7 5 5 5 6 7 7 9 7 7 6 6 6 6 6 5 5 6 6 6 8 12 13 14 14 14 14 11
10 10 8 8 9 11 7 5 5 6 5 2 3 4 5 9 9 7 6 5 6 7 8 8 9 8 9 9 9 8 8 9 9 8 7 8 10 11 9 12 12 11 10 8 12 9 10 8 7 5 7 7 9 8 9 9 8 7 4 5 6 6 5 6 6 7 7 6 6 8 11 14 13 14
11 10 11 10 13 12 11 10 8 6 6 5 3 2 3 4 6 7 5 5 6 6 6 6 8 8 7 8 9 9 10 8 7 7 8 9 8 9 9 10 10 12 10 6 5 8 8 7 5 8 10 8 11 9 8 9 8 1 1 4 6 7 6 6 7 8 7 7 6 8 10 12 12 14
11 11 11 10 11 11 8 4 4 5 6 6 8 8 8 8 7 6 6 6 7 7 7 8 8 9 9 8 10 9 8 7 7 7 8 8 9 10 9 11 13 11 10 10 9 9 9 10 8 9 9 10 11 11 11 7 8 8 9 2 3 5 5 5 6 6 6 6 5 5 4 4 5 6
11 11 12 11 10 10 8 9 8 8 11 10 10 10 10 9 6 6 6 8 7 8 10 11 12 12 12 10 9 6 6 7 7 7 7 8 9 9 11 11 11 12 9 7 7 7 7 8 10 9 10 10 11 11 9 11 9 8 2 3 2 2 3 3 3 3 3 3 3 3 2 3 3 3
15 14 14 14 14 12 9 8 7 8 7 7 8 9 9 7 7 7 7 8 9 11 11 11 12 11 8 5 6 6 6 7 9 8 9 8 9 9 10 9 9 4 1 1 0 1 2 4 5 6 8 7 8 8 7 6 6 0 3 1 2 1 3 4 3 3 3 2 3 3 3 3 3 2
7 7 7 5 4 4 7 9 7 7 8 7 7 6 6 5 6 7 8 9 9 10 10 11 10 9 9 6 7 7 8 9 8 7 9 8 9 8 8 10 10 5 3 3 2 0 1 3 4 6 8 7 7 7 4 4 6 2 1 1 2 3 3 3 2 2 2 2 2 3 3 3 3 4
6 5 5 4 2 2 3 4 4 4 4 5 5 6 6 6 7 8 11 10 8 8 8 9 7 8 7 7 7 6 6 6 8 7 7 8 8 7 6 6 7 3 4 4 5 6 5 3 1 2 1 0 4 0 4 4 3 3 1 2 3 3 4 3 3 3 3 2 3 5 5 5 4 5
3 4 3 3 3 2 2 2 2 2 3 6 7 7 7 6 5 4 2 4 5 6 7 7 7 7 6 7 6 6 5 4 3 3 4 5 6 3 1 1 3 4 4 5 5 6 7 7 7 8 8 9 8 6 3 4 5 4 4 4 4 4 4 4 4 3 3 4 5 4 5 5 6 5
10 9 8 8 8 8 7 9 9 8 8 8 8 8 9 7 7 7 6 7 7 7 6 6 5 5 4 5 5 5 5 5 5 6 6 5 5 6 6 6 5 6 5 5 5 5 5 4 4 7 9 11 10 11 8 6 6 5 5 4 5 5 5 5 5 5 4 3 4 5 4 5 6 5
12 11 10 10 10 9 10 10 10 9 9 8 8 8 8 7 8 8 8 7 6 7 7 7 7 7 7 7 7 7 7 7 6 6 7 7 8 8 7 7 6 5 5 4 4 2 1 1 2 3 2 3 6 9 12 9 5 5 5 6 6 5 6 6 6 6 6 5 4 6 5 5 5 6
11 10 11 11 11 10 11 10 9 9 9 8 8 7 8 8 8 8 7 7 7 7 7 8 8 8 8 8 7 7 7 7 8 7 8 8 8 8 8 8 7 7 6 5 4 3 2 2 3 3 4 4 5 5 6 11 12 5 5 5 5 5 6 7 7 7 6 6 6 6 6 5 5 5
12 11 11 11 10 10 10 9 9 9 8 8 8 8 8 8 8 8 8 7 8 8 8 7 8 7 7 7 8 8 8 9 10 10 10 9 9 8 9 9 8 7 7 7 5 5 5 5 5 3 2 6 7 8 7 6 11 13 7 6 7 7 6 7 8 8 8 7 8 6 6 5 5 5
11 11 11 11 11 10 9 9 8 8 9 8 8 8 8 8 7 8 7 7 8 7 8 7 7 7 7 7 7 9 9 10 11 11 10 10 11 11 9 9 8 7 7 6 6 6 5 7 6 5 4 6 6 5 5 4 3 8 13 7 6 6 6 7 8 7 8 8 9 8 6 6 6 6
11 10 10 10 10 9 9 9 9 9 9 9 9 9 8 8 8 7 8 8 8 8 8 8 8 7 8 7 7 7 8 8 9 9 9 9 10 10 10 10 10 7 8 9 8 8 7 8 8 8 7 7 6 5 5 4 7 5 10 14 6 6 6 7 7 7 7 7 7 7 7 8 9 11
9 9 9 9 9 9 9 9 9 9 8 7 8 8 7 8 8 8 8 8 8 8 8 8 9 8 8 8 8 8 9 10 9 8 8 8 8 8 8 9 9 9 9 9 9 9 11 10 9 8 8 7 6 5 5 5 5 6 8 11 14 8 5 6 7 6 7 7 6 7 7 6 6 6
9 10 9 8 9 9 8 9 8 7 8 7 7 7 8 8 8 8 7 7 7 7 7 7 7 7 7 7 7 7 8 7 7 7 7 7 7 7 7 6 7 8 9 9 8 8 7 5 4 4 3 1 0 2 1 6 8 8 9 9 11 13 12 9 7 7 6 5 6 7 7 6 6 6
7 7 7 7 7 7 7 8 8 8 8 7 7 7 7 7 7 10 8 9 7 6 6 7 6 6 6 6 6 6 7 6 6 6 6 6 6 6 7 6 7 5 6 8 7 5 2 2 3 3 3 2 2 5 9 8 8 8 7 8 7 8 11 12 12 9 6 4 3 4 3 3 3 6
8 7 7 7 7 7 7 7 7 7 7 7 7 7 7 8 7 8 7 7 7 7 6 6 5 5 5 5 5 5 5 6 5 5 6 5 6 6 6 6 6 5 6 5 3 3 4 4 4 5 4 5 6 6 9 7 7 7 7 7 7 7 6 8 10 12 13 13 10 5 2 1 1 2
7 7 7 7 7 7 7 7 7 7 6 6 6 6 7 6 7 7 6 6 6 6 5 5 5 5 5 4 4 5 5 5 5 5 5 5 5 6 5 5 5 5 4 4 4 4 4 5 4 3 5 6 4 6 7 7 7 6 6 5 5 5 6 5 4 5 8 12 14 12 11 6 4 6
6 6 6 6 6 6 7 6 7 6 6 6 6 6 6 6 6 6 7 6 6 6 6 5 5 5 5 5 5 6 5 5 4 4 4 4 4 4 5 4 4 4 4 2 3 4 3 3 3 3 5 5 4 5 5 5 6 5 5 4 4 4 3 2 3 4 5 5 10 12 11 10 10 9
Wind_Direction
227 224 219 215 229 234 224 221 219 220 215 221 226 220 231 223 265 286 281 277 284 276 218 264 274 254 263 280 280 282 270 270 272 259 249 257 260 265 262 261 259 253 249 244 236 229 225 225 225 225 227 227 226 225 224 226 227 229 229 227 227 227 230 233 232 229 228 226 226 226 227 228 229 230
216 222 225 219 229 232 223 220 218 217 215 217 219 221 222 206 237 254 275 280 245 276 251 237 267 276 274 277 284 278 272 281 290 279 262 259 258 276 276 266 257 253 250 246 241 234 228 227 229 230 231 231 231 231 229 226 225 226 227 228 226 227 229 230 230 229 228 226 226 225 225 226 226 227
205 212 223 222 231 230 226 221 217 218 215 217 216 222 212 208 213 241 249 275 244 225 268 260 242 259 269 270 278 284 275 278 283 286 288 278 299 307 294 285 264 254 252 249 243 240 234 230 231 232 233 233 233 233 234 232 231 231 229 228 229 229 230 231 230 228 228 227 227 226 225 226 226 226
212 214 223 224 225 228 229 228 217 213 216 218 219 219 218 221 215 214 238 248 268 214 254 265 266 258 266 273 280 278 275 261 248 257 267 292 308 305 295 300 294 263 257 255 251 249 246 242 239 237 237 236 234 234 234 235 234 233 233 233 233 232 232 232 231 229 227 227 227 227 226 225 225 226
218 221 225 229 229 222 222 224 223 219 222 219 222 220 222 231 218 209 225 250 267 255 230 253 259 264 268 273 260 268 262 269 271 273 272 284 287 291 288 293 295 292 259 235 240 242 242 244 246 248 247 243 241 238 237 236 234 234 234 234 234 233 232 231 230 229 227 226 226 227 226 225 224 224
219 217 216 225 226 216 223 225 222 219 216 217 223 223 220 225 231 208 222 244 256 269 222 255 247 266 254 264 258 264 268 267 259 261 265 265 258 275 287 285 285 285 288 276 236 230 237 241 246 250 250 251 251 248 243 239 236 236 236 235 234 233 233 232 232 231 228 227 227 227 227 225 224 223
222 214 219 227 228 217 224 226 228 218 220 218 222 231 222 234 234 220 211 238 253 259 251 237 259 254 256 247 259 255 254 261 268 273 264 266 274 262 265 274 277 283 284 286 280 261 242 236 237 241 247 251 252 252 250 244 239 237 237 236 235 234 234 233 233 233 231 229 228 227 227 226 224 222
228 222 233 245 245 240 233 234 224 221 219 220 225 233 229 228 238 230 220 217 244 250 269 232 250 245 259 261 252 248 260 264 261 245 259 259 258 263 264 265 273 279 280 277 276 276 269 258 249 244 244 245 245 246 247 247 244 240 238 237 237 237 236 235 235 234 232 230 228 227 227 226 224 221
223 230 252 262 262 249 238 231 230 220 222 225 227 231 230 232 233 233 227 233 222 243 256 260 245 249 245 257 271 255 260 260 250 247 242 241 248 260 261 269 268 275 274 273 273 274 273 269 262 255 252 251 250 247 245 245 245 244 243 241 239 239 238 238 236 234 232 230 228 227 226 224 222 219
236 240 239 239 234 238 224 228 225 223 228 230 230 235 236 234 235 235 234 224 232 236 254 254 259 240 251 254 255 260 247 261 270 267 251 249 238 247 266 254 253 261 268 277 270 261 261 256 252 253 250 248 248 248 248 247 246 246 247 246 246 243 241 238 236 233 231 229 228 227 226 224 221 218
239 235 230 233 233 229 222 225 225 232 235 228 230 229 234 232 232 234 231 229 235 241 254 254 249 258 252 248 261 249 205 241 250 272 285 272 231 225 242 267 256 240 258 254 252 261 268 273 271 255 243 242 244 245 244 244 245 247 246 246 246 245 242 239 235 232 230 229 228 227 226 224 221 219
237 234 234 231 227 227 229 232 236 232 238 228 235 230 232 230 231 232 230 237 240 245 248 255 257 243 254 253 244 259 278 275 261 229 246 265 270 251 221 238 265 251 248 272 270 249 253 257 256 259 260 254 248 244 243 241 242 242 243 241 240 242 241 238 235 232 230 228 227 225 224 222 221 219
235 234 232 231 228 229 236 228 226 225 220 226 233 231 223 228 229 239 250 267 259 251 247 250 246 249 247 249 253 250 242 242 246 233 199 244 248 266 274 248 226 244 257 258 264 267 256 266 260 260 262 251 244 244 237 247 239 239 240 238 235 235 236 237 235 232 230 229 227 225 223 222 220 219
237 237 236 238 241 242 242 242 238 238 235 233 232 235 224 230 235 233 228 232 244 255 257 249 247 249 245 252 246 248 239 244 258 247 214 243 244 263 272 279 252 212 222 246 257 262 250 247 264 259 261 261 235 254 233 232 236 233 232 237 240 239 238 238 238 236 232 228 227 226 225 223 220 219
249 244 241 240 246 248 247 249 246 245 245 245 242 239 237 233 225 235 230 228 234 239 243 244 240 240 252 250 237 238 242 239 239 247 238 241 258 259 274 281 296 169 206 227 260 265 228 219 253 254 253 255 252 245 244 240 235 241 242 239 239 240 241 240 241 242 240 235 230 227 226 225 223 220
256 255 250 244 239 239 241 243 246 249 249 250 249 248 244 241 236 228 223 228 240 246 252 249 245 243 244 243 233 238 231 239 243 244 246 247 251 256 257 261 265 245 172 214 251 273 250 224 250 259 255 256 252 252 250 243 240 241 242 240 239 238 239 239 239 239 239 239 236 232 228 226 224 222
255 255 257 258 248 241 241 245 246 241 244 247 249 247 247 244 239 236 225 216 221 231 235 247 251 244 240 237 232 227 234 227 241 240 243 244 249 250 256 258 258 248 193 251 266 272 271 250 258 258 253 258 255 255 240 238 243 244 245 243 241 239 238 238 238 237 237 236 236 235 232 228 225 223
258 252 252 254 253 245 245 246 243 243 244 247 252 251 247 243 242 239 233 229 227 224 221 218 239 240 231 250 247 236 228 232 243 251 249 244 248 247 249 242 249 266 193 247 276 277 267 251 269 270 266 248 253 251 253 243 238 242 245 246 244 242 239 238 237 237 236 235 234 233 232 230 228 225
261 255 253 253 257 254 247 239 240 242 244 246 246 248 246 244 244 244 242 236 227 233 233 234 229 235 237 239 245 245 238 234 236 242 249 249 252 261 268 267 254 258 233 240 245 262 269 253 263 268 264 261 258 259 251 240 243 243 243 244 246 245 243 241 239 237 236 235 234 232 231 230 229 227
261 262 259 256 252 250 249 249 248 252 255 254 257 259 263 261 256 255 250 250 237 223 229 221 220 221 228 232 235 235 230 226 233 241 245 253 256 255 255 258 255 255 233 222 231 258 265 242 265 270 268 259 264 265 263 250 239 243 244 245 245 247 247 244 241 240 238 237 235 232 230 229 228 227
266 259 253 256 258 257 255 253 252 253 254 261 259 255 264 266 261 256 249 242 247 243 236 237 235 238 239 237 237 235 233 232 233 236 247 243 243 248 251 256 256 254 227 213 218 247 264 251 254 269 270 263 264 266 265 262 248 237 241 243 246 246 247 246 245 243 242 240 238 236 233 231 229 227
271 268 264 268 267 267 265 261 255 254 255 258 251 251 251 257 258 260 255 258 250 233 237 239 241 238 240 243 246 243 239 237 232 236 243 240 231 243 243 252 256 262 242 227 191 234 244 259 245 264 271 278 251 251 259 262 262 248 241 241 246 249 248 248 248 248 248 245 244 241 237 236 232 230
289 283 273 271 273 275 279 283 281 278 276 271 267 261 259 256 252 252 251 261 261 250 246 247 241 249 241 238 234 239 238 234 222 228 239 242 240 242 240 247 255 262 249 226 176 229 248 250 245 249 281 278 266 247 247 253 258 259 260 253 246 241 247 251 251 253 253 250 248 244 239 238 231 226
281 274 278 273 259 261 274 283 286 285 289 279 275 267 259 255 256 261 266 261 260 265 266 264 260 260 257 252 244 241 241 237 237 234 232 234 233 233 239 239 234 244 251 193 184 223 246 229 249 215 227 273 282 26 244 263 244 239 233 245 260 249 229 237 248 242 245 247 246 245 243 242 232 228
283 278 267 264 263 255 258 264 286 311 320 327 299 265 245 246 272 289 276 271 269 265 263 262 262 260 255 250 246 244 246 248 246 242 233 234 226 219 225 229 230 240 239 233 189 227 245 226 244 238 248 246 263 277 272 277 262 254 241 235 254 254 247 246 247 249 231 236 241 241 243 242 236 223
278 270 268 265 264 260 243 231 259 280 289 284 289 271 302 324 331 306 284 268 259 260 264 266 268 268 264 261 255 252 253 254 252 251 245 236 238 233 226 235 239 250 248 226 190 225 246 248 248 254 260 260 265 255 274 272 269 264 236 224 234 250 229 247 243 247 248 243 237 225 231 235 236 225
273 272 270 269 269 270 269 274 281 283 290 282 250 270 306 298 298 297 280 283 280 271 270 264 265 266 263 264 261 258 262 259 249 250 247 251 247 244 242 242 243 250 255 251 198 222 232 249 226 244 257 258 267 270 261 272 276 136 235 224 235 239 234 231 239 244 245 242 245 225 223 232 232 230
270 270 269 269 274 282 290 290 280 286 287 282 287 283 273 273 275 273 275 266 270 278 274 266 262 262 260 260 264 263 265 266 266 259 251 246 242 246 247 246 247 247 252 251 240 233 237 245 248 246 251 261 265 266 273 253 258 270 274 238 223 237 241 237 243 253 256 260 258 246 237 240 233 224
270 265 262 259 260 265 275 284 292 285 281 273 272 268 263 259 254 246 248 255 256 258 259 262 264 262 262 263 266 268 261 265 265 263 262 256 254 246 246 249 249 251 247 245 244 243 246 246 248 254 255 252 257 262 261 267 266 266 269 300 272 40 10 342 306 298 317 340 340 330 322 319 276 211
280 279 278 274 269 266 262 265 265 276 280 269 254 258 262 265 258 257 254 254 254 256 261 262 263 266 264 249 254 257 257 257 257 258 261 261 258 253 252 252 245 206 82 303 313 232 236 247 253 255 256 254 252 258 261 277 272 131 38 49 303 207 60 19 22 16 25 32 39 35 6 350 317 266
293 292 291 292 279 229 234 232 241 254 269 274 280 279 272 264 265 259 257 255 255 258 261 262 262 265 267 262 252 250 252 254 254 246 253 251 252 248 239 243 248 190 94 70 69 83 224 236 229 224 232 241 249 257 273 256 256 272 26 12 332 248 330 9 21 27 48 91 74 62 36 20 15 357
322 329 326 327 328 263 247 246 254 265 269 279 281 282 275 264 262 263 260 254 243 246 248 255 261 259 258 259 255 255 250 248 252 244 242 246 254 246 239 238 236 157 103 60 47 40 49 52 76 67 59 353 261 11 52 47 41 32 37 34 60 55 31 13 24 32 22 62 61 52 42 31 22 15
4 41 24 9 351 353 325 312 306 8 37 46 39 39 33 25 21 11 355 286 272 263 254 256 258 261 249 254 255 244 250 290 344 339 274 268 263 282 327 316 50 90 84 65 50 42 43 52 69 77 74 62 53 54 83 70 46 35 36 29 49 54 42 35 36 25 19 63 68 62 49 39 33 21
40 38 41 37 43 49 54 59 57 53 52 50 47 37 39 34 35 34 34 32 24 26 32 29 31 30 42 49 47 57 64 51 32 25 33 33 42 70 68 69 54 54 62 65 61 61 58 45 40 57 70 69 63 51 43 61 59 47 44 41 44 49 40 39 36 33 51 85 108 78 59 46 36 30
38 35 42 38 40 42 47 52 49 47 45 43 46 41 38 35 36 36 34 28 33 38 40 41 42 42 44 46 44 49 49 50 42 42 41 48 52 59 63 67 56 48 52 51 43 17 37 311 347 358 13 56 67 61 50 38 54 51 57 50 46 46 45 40 46 52 62 63 70 89 72 54 43 37
41 36 42 42 39 40 43 42 45 46 47 41 41 38 41 38 33 32 32 22 40 43 47 47 46 48 50 52 50 52 55 58 58 53 53 52 57 59 58 59 59 56 50 44 33 12 12 44 35 26 38 25 56 54 39 31 40 16 40 50 39 48 50 51 51 51 53 59 56 66 68 61 49 46
41 33 35 41 37 38 41 37 40 42 44 43 43 44 44 43 31 30 22 17 41 45 47 51 51 50 53 57 59 58 57 61 65 62 63 64 65 63 65 58 53 49 53 46 35 28 27 43 41 39 71 75 64 63 45 7 33 28 27 59 57 54 59 58 56 56 52 55 61 57 64 64 52 46
39 33 34 34 33 32 35 34 36 41 40 39 41 42 41 40 35 30 24 35 37 37 39 43 44 42 45 43 54 63 64 63 66 65 62 62 66 64 63 68 64 57 59 51 44 41 33 51 48 39 50 75 80 62 62 19 4 23 19 32 65 58 56 63 61 62 60 56 58 54 54 57 56 55
33 29 27 28 25 25 28 27 30 32 32 36 35 37 39 39 36 32 32 37 33 38 40 40 39 41 44 41 44 45 50 49 53 53 54 54 57 64 63 63 64 55 58 55 46 43 44 49 52 54 63 69 66 66 60 60 47 35 29 27 37 63 60 71 71 70 72 71 69 67 68 71 72 69
26 31 27 24 20 20 25 22 26 27 29 25 35 31 31 37 36 36 36 33 35 35 43 43 45 42 37 33 41 50 51 52 53 51 51 53 51 52 53 56 62 61 62 61 60 58 59 57 55 56 65 72 87 88 94 90 83 50 45 32 29 47 59 78 71 69 65 70 80 77 70 67 70 70
18 26 21 20 22 20 22 22 20 18 22 18 24 28 32 36 39 37 35 38 42 42 38 41 43 40 43 38 33 40 50 45 46 46 46 51 51 52 55 60 61 60 65 60 58 58 50 42 66 91 93 119 31 243 77 64 57 51 48 44 32 46 52 52 72 69 68 62 66 64 56 51 61 69
15 17 13 17 17 10 13 17 13 18 20 16 20 22 29 32 33 34 36 36 37 36 43 41 36 40 40 35 36 37 47 42 40 42 40 42 53 53 45 46 57 43 56 58 50 45 11 6 48 63 64 69 90 82 72 66 70 59 54 56 58 44 47 55 57 52 44 34 48 54 62 77 72 58
19 17 16 9 16 18 16 17 16 16 16 16 19 14 24 30 28 25 26 29 26 32 32 35 30 36 33 33 35 34 43 43 39 42 42 38 41 47 47 48 52 54 61 64 50 39 37 34 46 68 70 69 64 75 80 77 75 73 68 68 68 74 69 68 70 65 56 44 32 31 336 332 24 58
14 19 17 13 17 15 15 15 15 15 15 18 16 20 26 25 29 25 23 21 24 26 21 30 28 25 24 23 24 34 33 31 28 31 33 35 33 38 42 42 42 49 57 68 73 62 55 51 40 36 63 57 56 71 81 83 78 74 77 75 80 77 75 73 75 74 60 42 22 18 38 56 75 80
11 17 19 16 17 19 18 13 18 12 13 11 18 24 22 26 30 25 23 18 17 13 20 20 21 20 20 19 22 27 21 20 27 31 28 31 32 34 39 38 41 41 40 19 59 63 55 65 55 51 64 64 60 78 83 85 89 90 86 88 82 77 69 44 40 47 43 54 19 13 35 52 70 91